Flag for U.S.A. Weather past 2 weeks in Daly City, California, U.S.A.

Now
61 °F

Scattered clouds.


Feels Like: 61 °F
Forecast: 51 / 58 °F
Wind: 17 mph from West

Location: San Francisco International Airport

Current Time: Apr 20, 2015 at 6:47:54 PM

Latest Report: Apr 20, 2015 at 5:56 PM


Visibility: 10 mi

Pressure: 29.84 "Hg

Humidity: 67%

Dew point: 50 °F

Location of Daly CityLocation

Historic Weather in Daly City — Graph

°F

Daly City temperature yesterday

Maximum temperature yesterday: 63 °F (at 12:56 PM)
Minimum temperature yesterday: 51 °F (at 12:56 AM)
Average temperature yesterday: 56 °F

Past Weeks' High & Low Weather Summary

 TemperatureHumidityPressure
High78 °F (Apr 16, 2:56 PM)100% (Apr 7, 4:56 AM)30.35 "Hg (Apr 7, 4:56 AM)
Low46 °F (Apr 6, 6:56 AM)20% (Apr 16, 2:56 PM)29.77 "Hg (Apr 7, 4:56 AM)
Average57 °F72%30.03 "Hg
* Reported Apr 5 4:56 PM — Apr 20 4:56 PM, Daly City, Weather by CustomWeather, © 2015

Note: Actual official high and low records may vary slightly from our data, if they occured in-between our weather recording intervals... More about our weather records

Advertising

Daly City weather history for previous 24 hours

 ConditionsComfort  
Time TempWeatherWind HumidityBarometerVisibility
4:56 PM
Mon, Apr 20
63 °FPassing clouds.17 mph63%29.85 "Hg10 mi
3:56 PM65 °FPassing clouds.18 mph61%29.85 "Hg10 mi
2:56 PM66 °FPassing clouds.17 mph61%29.86 "Hg10 mi
1:56 PM66 °FPassing clouds.17 mph59%29.87 "Hg10 mi
1:03 PM64 °FPassing clouds.7 mph64%29.88 "Hg10 mi
11:56 AM62 °FPartly sunny.9 mph67%29.90 "Hg10 mi
10:56 AM59 °FMore clouds than sun.7 mph78%29.91 "Hg10 mi
9:56 AM57 °FMore clouds than sun.6 mph87%29.91 "Hg10 mi
8:56 AM55 °FLow clouds.No wind87%29.90 "Hg10 mi
7:56 AM54 °FLow clouds.No wind97%29.90 "Hg10 mi
6:56 AM54 °FMostly cloudy.6 mph93%29.89 "Hg10 mi
5:56 AM54 °FMostly cloudy.7 mph93%29.89 "Hg10 mi
4:56 AM54 °FPassing clouds.5 mph93%29.89 "Hg10 mi
3:56 AM53 °FPassing clouds.3 mph93%29.89 "Hg10 mi
2:56 AM54 °FPassing clouds.6 mph90%29.89 "Hg10 mi
1:58 AM54 °FPassing clouds.6 mph94%29.90 "Hg10 mi
12:56 AM54 °FPassing clouds.7 mph93%29.90 "Hg10 mi
11:56 PM
Sun, Apr 19
53 °FPassing clouds.7 mph100%29.90 "Hg10 mi
10:56 PM54 °FPassing clouds.9 mph97%29.91 "Hg10 mi
9:56 PM54 °FPassing clouds.10 mph97%29.91 "Hg10 mi
8:56 PM55 °FPassing clouds.12 mph93%29.91 "Hg10 mi
7:56 PM56 °FScattered clouds.13 mph93%29.90 "Hg10 mi
6:56 PM58 °FScattered clouds.15 mph87%29.89 "Hg10 mi
Weather by CustomWeather, © 2015

See weather overviewHow to use our weather pages